Location: ???????
(56.2167°N, 38.0500°E)
Time: 17:52:57
(UTC+00:00)

Landsat 5 - Pass Details

Date: 19 May 2025
Orbit: 510 x 610 km, 98.1° (Epoch: 20 June)

Event Time Altitude Azimuth Distance (km) Brightness Sun altitude
Rises 20:15:28 0° 19° (NNE) 2,803 7.9 -12.4°
Reaches altitude 10° 20:17:41 10° 25° (NNE) 1,915 6.8 -12.5°
Maximum altitude 20:21:42 47° 100° (E) 799 3.9 -12.7°
Enters shadow 20:24:21 20° 166° (SSE) 1,405 4.7 -12.8°
